Location: Tyler Bend Campground
(35.9875°N, 92.7606°W)
Time: 21:53:46
(UTC-06:00)

CZ-2C R/B - Visible Passes

Search period start: 06 February 2016 00:00
Search period end: 16 February 2016 00:00
Orbit: 668 x 786 km, 98.1° (Epoch: 06 February)

Date Brightness Start Highest point End Pass type
(mag) Time Alt. Az. Time Alt. Az. Time Alt. Az.
06 Feb 2.4 18:08:38 10° SSE 18:13:35 69° ENE 18:18:24 10° N visible
06 Feb 5.9 19:51:05 10° WSW 19:52:11 11° W 19:53:17 10° WNW visible
07 Feb 5.0 06:15:24 10° NE 06:19:02 23° E 06:22:40 10° SSE visible
07 Feb 4.2 18:59:31 10° SSW 19:04:02 34° W 19:08:27 10° NNW visible
08 Feb 2.4 18:11:13 10° SSE 18:16:10 74° ENE 18:20:58 10° N visible
09 Feb 4.9 06:17:51 10° NE 06:21:36 25° E 06:25:22 10° SSE visible
09 Feb 4.3 19:02:14 10° SSW 19:06:37 32° W 19:10:55 10° NW visible
10 Feb 2.3 18:13:49 10° SSE 18:18:44 79° ENE 18:23:31 10° N visible
11 Feb 4.8 06:20:18 10° NE 06:24:11 27° E 06:28:04 10° SSE visible
11 Feb 4.5 19:04:57 10° SSW 19:09:13 30° W 19:13:24 10° NW visible
12 Feb 2.3 18:16:24 10° SSE 18:21:18 84° ENE 18:26:04 10° N visible
13 Feb 4.7 06:22:46 10° NE 06:26:45 29° E 06:30:45 10° SSE visible
13 Feb 4.6 19:07:39 10° SSW 19:11:48 28° W 19:15:51 10° NW visible
14 Feb 2.4 18:19:00 10° SSE 18:23:52 90° NE 18:28:36 10° NNW visible
15 Feb 4.5 06:25:14 10° NE 06:29:19 31° E 06:33:26 10° SSE visible
15 Feb 4.7 19:10:23 10° SSW 19:14:23 26° W 19:18:18 10° NW visible
